Time,TemperatureF,DewpointF,PressureIn,WindDirection,WindDirectionDegrees,WindSpeedMPH,WindSpeedGustMPH,Humidity,HourlyPrecipIn,Conditions,Clouds,dailyrainin,SoftwareType,DateUTC
2013-01-15 00:03:00,41.6,33.2,30.10,NE,42,3.5,3.5,72,0.00,CLR,,0.00,WeatherDisplay:10.37,2013-01-15 06:03:00,
2013-01-15 00:08:00,41.4,33.0,30.10,ENE,75,5.8,5.8,72,0.00,CLR,,0.00,WeatherDisplay:10.37,2013-01-15 06:08:00,
2013-01-15 00:13:00,41.3,33.0,30.10,NE,51,4.6,4.6,72,0.00,CLR,,0.00,WeatherDisplay:10.37,2013-01-15 06:13:00,
2013-01-15 00:18:00,41.3,33.0,30.10,ENE,61,5.8,5.8,72,0.00,CLR,,0.00,WeatherDisplay:10.37,2013-01-15 06:18:00,
2013-01-15 00:23:00,41.2,33.2,30.10,NE,51,3.5,3.5,73,0.00,CLR,,0.00,WeatherDisplay:10.37,2013-01-15 06:23:00,
2013-01-15 00:28:00,41.1,33.1,30.10,NE,51,5.8,0.0,73,0.00,CLR,,0.00,WeatherDisplay:10.37,2013-01-15 06:28:00,
2013-01-15 00:33:00,41.1,33.4,30.10,NE,53,0.0,0.2,74,0.00,CLR,,0.00,WeatherDisplay:10.37,2013-01-15 06:33:00,
2013-01-15 00:38:00,41.0,33.3,30.10,NE,53,0.0,0.0,74,0.00,CLR,,0.00,WeatherDisplay:10.37,2013-01-15 06:38:00,
2013-01-15 00:43:00,41.0,33.3,30.10,NE,52,3.5,3.5,74,0.00,CLR,,0.00,WeatherDisplay:10.37,2013-01-15 06:43:00,
2013-01-15 00:48:00,40.9,33.6,30.10,NE,52,0.0,0.0,75,0.00,CLR,,0.00,WeatherDisplay:10.37,2013-01-15 06:48:00,
2013-01-15 00:53:00,40.7,33.7,30.10,NE,53,0.0,0.0,76,0.00,CLR,,0.00,WeatherDisplay:10.37,2013-01-15 06:53:00,
2013-01-15 00:58:00,40.5,33.5,30.10,NE,49,0.0,0.0,76,0.00,CLR,,0.00,WeatherDisplay:10.37,2013-01-15 06:58:00,
2013-01-15 01:03:00,40.5,33.9,30.10,North,5,0.0,0.0,77,0.00,CLR,,0.00,WeatherDisplay:10.37,2013-01-15 07:03:00,
2013-01-15 01:08:00,40.4,34.1,30.10,North,5,0.0,0.0,78,0.00,CLR,,0.00,WeatherDisplay:10.37,2013-01-15 07:08:00,
2013-01-15 01:13:00,40.3,34.3,30.10,North,5,0.0,0.0,79,0.00,CLR,,0.00,WeatherDisplay:10.37,2013-01-15 07:13:00,
2013-01-15 01:18:00,40.1,34.1,30.10,North,5,0.0,0.0,79,0.00,CLR,,0.00,WeatherDisplay:10.37,2013-01-15 07:18:00,
2013-01-15 01:23:00,40.0,34.3,30.10,North,5,3.5,0.0,80,0.00,CLR,,0.00,WeatherDisplay:10.37,2013-01-15 07:23:00,
2013-01-15 01:28:00,39.8,34.4,30.10,North,360,1.2,1.2,81,0.00,CLR,,0.00,WeatherDisplay:10.37,2013-01-15 07:28:00,
2013-01-15 01:33:00,39.7,34.7,30.10,North,5,2.3,0.0,82,0.00,CLR,,0.00,WeatherDisplay:10.37,2013-01-15 07:33:00,
2013-01-15 01:38:00,39.5,34.5,30.10,North,5,0.0,0.1,82,0.00,CLR,,0.00,WeatherDisplay:10.37,2013-01-15 07:38:00,
2013-01-15 01:43:00,39.3,34.6,30.10,North,360,1.2,0.0,83,0.00,CLR,,0.00,WeatherDisplay:10.37,2013-01-15 07:43:00,
2013-01-15 01:48:00,39.2,34.8,30.10,North,360,0.0,0.0,84,0.00,CLR,,0.00,WeatherDisplay:10.37,2013-01-15 07:48:00,
2013-01-15 01:53:00,39.1,35.0,30.11,North,5,0.0,0.0,85,0.00,CLR,,0.00,WeatherDisplay:10.37,2013-01-15 07:53:00,
2013-01-15 01:58:00,39.0,34.9,30.11,North,5,0.0,0.0,85,0.00,CLR,,0.00,WeatherDisplay:10.37,2013-01-15 07:58:00,
2013-01-15 02:03:00,38.9,34.8,30.11,North,5,0.0,0.0,85,0.00,CLR,,0.00,WeatherDisplay:10.37,2013-01-15 08:03:00,
2013-01-15 02:08:00,38.8,35.0,30.11,North,5,0.0,0.0,86,0.00,CLR,,0.00,WeatherDisplay:10.37,2013-01-15 08:08:00,
2013-01-15 02:13:00,38.8,35.0,30.10,North,360,0.0,0.0,86,0.00,CLR,,0.00,WeatherDisplay:10.37,2013-01-15 08:13:00,
2013-01-15 02:18:00,38.7,35.2,30.10,North,5,3.0,3.0,87,0.00,CLR,,0.00,WeatherDisplay:10.37,2013-01-15 08:18:00,
2013-01-15 02:23:00,38.6,35.1,30.10,North,5,0.0,0.0,87,0.00,CLR,,0.00,WeatherDisplay:10.37,2013-01-15 08:23:00,
2013-01-15 02:28:00,38.4,34.9,30.10,North,360,0.0,0.0,87,0.00,CLR,,0.00,WeatherDisplay:10.37,2013-01-15 08:28:00,
2013-01-15 02:33:00,38.3,34.8,30.10,North,360,2.3,0.0,87,0.00,CLR,,0.00,WeatherDisplay:10.37,2013-01-15 08:33:00,
2013-01-15 02:38:00,38.2,35.0,30.11,North,5,0.0,0.1,88,0.00,CLR,,0.00,WeatherDisplay:10.37,2013-01-15 08:38:00,
2013-01-15 02:43:00,38.1,34.9,30.10,North,360,2.3,2.3,88,0.00,CLR,,0.00,WeatherDisplay:10.37,2013-01-15 08:43:00,
2013-01-15 02:48:00,38.0,34.8,30.10,North,9,6.9,6.9,88,0.00,CLR,,0.00,WeatherDisplay:10.37,2013-01-15 08:48:00,
2013-01-15 02:53:00,37.9,34.9,30.10,North,360,0.0,0.0,89,0.00,CLR,,0.00,WeatherDisplay:10.37,2013-01-15 08:53:00,
2013-01-15 02:58:00,37.9,34.9,30.10,North,360,0.0,0.5,89,0.00,CLR,,0.00,WeatherDisplay:10.37,2013-01-15 08:58:00,
2013-01-15 03:03:00,37.8,34.8,30.10,North,360,4.6,4.6,89,0.00,CLR,,0.00,WeatherDisplay:10.37,2013-01-15 09:03:00,
2013-01-15 03:08:00,37.7,34.8,30.10,North,360,0.0,0.0,89,0.00,CLR,,0.00,WeatherDisplay:10.37,2013-01-15 09:08:00,
2013-01-15 03:13:00,37.7,34.8,30.10,North,360,2.3,0.0,89,0.00,CLR,,0.00,WeatherDisplay:10.37,2013-01-15 09:13:00,
2013-01-15 03:18:00,37.7,34.8,30.09,North,360,3.5,3.5,89,0.00,CLR,,0.00,WeatherDisplay:10.37,2013-01-15 09:18:00,
2013-01-15 03:23:00,37.7,35.0,30.09,North,360,3.5,3.5,90,0.00,CLR,,0.00,WeatherDisplay:10.37,2013-01-15 09:23:00,
2013-01-15 03:28:00,37.7,35.0,30.09,North,360,3.5,3.5,90,0.00,CLR,,0.00,WeatherDisplay:10.37,2013-01-15 09:28:00,
2013-01-15 03:33:00,37.6,34.9,30.09,North,360,3.5,3.5,90,0.00,CLR,,0.00,WeatherDisplay:10.37,2013-01-15 09:33:00,
2013-01-15 03:38:00,37.4,34.7,30.09,North,360,6.9,6.9,90,0.00,CLR,,0.00,WeatherDisplay:10.37,2013-01-15 09:38:00,
2013-01-15 03:43:00,37.3,34.6,30.09,North,360,0.0,0.0,90,0.00,CLR,,0.00,WeatherDisplay:10.37,2013-01-15 09:43:00,
2013-01-15 03:48:00,37.3,34.6,30.09,North,355,10.4,10.4,90,0.00,CLR,,0.00,WeatherDisplay:10.37,2013-01-15 09:48:00,
2013-01-15 03:53:00,37.2,34.5,30.09,North,360,10.4,10.4,90,0.00,CLR,,0.00,WeatherDisplay:10.37,2013-01-15 09:53:00,
2013-01-15 03:58:00,37.2,34.5,30.08,North,360,9.2,9.2,90,0.00,CLR,,0.00,WeatherDisplay:10.37,2013-01-15 09:58:00,
2013-01-15 04:03:00,37.0,34.3,30.08,North,360,0.0,0.9,90,0.00,CLR,,0.00,WeatherDisplay:10.37,2013-01-15 10:03:00,
2013-01-15 04:08:00,36.9,34.5,30.08,North,355,6.9,6.9,91,0.00,CLR,,0.00,WeatherDisplay:10.37,2013-01-15 10:08:00,
2013-01-15 04:13:00,36.8,34.1,30.09,North,355,4.6,4.6,90,0.00,CLR,,0.00,WeatherDisplay:10.37,2013-01-15 10:13:00,
2013-01-15 04:18:00,36.8,34.4,30.08,North,355,4.0,4.0,91,0.00,CLR,,0.00,WeatherDisplay:10.37,2013-01-15 10:18:00,
2013-01-15 04:23:00,36.7,34.3,30.08,North,355,4.0,4.0,91,0.00,CLR,,0.00,WeatherDisplay:10.37,2013-01-15 10:23:00,
2013-01-15 04:28:00,36.7,34.3,30.08,North,355,1.2,0.0,91,0.00,CLR,,0.00,WeatherDisplay:10.37,2013-01-15 10:28:00,
2013-01-15 04:33:00,36.6,34.2,30.09,North,360,11.5,11.5,91,0.00,CLR,,0.00,WeatherDisplay:10.37,2013-01-15 10:33:00,
2013-01-15 04:38:00,36.5,34.1,30.09,North,360,5.8,5.8,91,0.00,CLR,,0.00,WeatherDisplay:10.37,2013-01-15 10:38:00,
2013-01-15 04:43:00,36.5,34.1,30.09,North,360,9.2,9.2,91,0.00,CLR,,0.00,WeatherDisplay:10.37,2013-01-15 10:43:00,
2013-01-15 04:48:00,36.4,34.0,30.09,North,360,5.8,5.8,91,0.00,CLR,,0.00,WeatherDisplay:10.37,2013-01-15 10:48:00,
2013-01-15 04:53:00,36.4,34.0,30.09,North,360,5.0,5.0,91,0.00,CLR,,0.00,WeatherDisplay:10.37,2013-01-15 10:53:00,
2013-01-15 04:58:00,36.4,34.0,30.09,North,360,10.4,10.4,91,0.00,CLR,,0.00,WeatherDisplay:10.37,2013-01-15 10:58:00,
2013-01-15 05:03:00,36.4,34.0,30.09,North,360,7.0,7.0,91,0.00,CLR,,0.00,WeatherDisplay:10.37,2013-01-15 11:03:00,
2013-01-15 05:08:00,36.3,33.9,30.09,North,360,6.9,6.9,91,0.00,CLR,,0.00,WeatherDisplay:10.37,2013-01-15 11:08:00,
2013-01-15 05:13:00,36.3,33.9,30.08,North,360,5.8,5.8,91,0.00,CLR,,0.00,WeatherDisplay:10.37,2013-01-15 11:13:00,
2013-01-15 05:18:00,36.3,33.9,30.09,North,360,0.0,2.1,91,0.00,CLR,,0.00,WeatherDisplay:10.37,2013-01-15 11:18:00,
2013-01-15 05:23:00,36.3,33.9,30.09,North,360,1.2,0.0,91,0.00,CLR,,0.00,WeatherDisplay:10.37,2013-01-15 11:23:00,
2013-01-15 05:28:00,36.3,33.9,30.09,North,5,6.9,6.9,91,0.00,CLR,,0.00,WeatherDisplay:10.37,2013-01-15 11:28:00,
2013-01-15 05:33:00,36.3,33.9,30.10,North,5,10.4,10.4,91,0.00,CLR,,0.00,WeatherDisplay:10.37,2013-01-15 11:33:00,
2013-01-15 05:38:00,36.3,33.9,30.10,North,5,6.9,6.9,91,0.00,CLR,,0.00,WeatherDisplay:10.37,2013-01-15 11:38:00,
2013-01-15 05:43:00,36.3,33.9,30.10,North,360,8.1,8.1,91,0.00,CLR,,0.00,WeatherDisplay:10.37,2013-01-15 11:43:00,
2013-01-15 05:48:00,36.2,33.8,30.10,North,360,1.2,3.4,91,0.00,CLR,,0.00,WeatherDisplay:10.37,2013-01-15 11:48:00,
2013-01-15 05:53:00,36.2,33.8,30.10,North,360,7.0,7.0,91,0.00,CLR,,0.00,WeatherDisplay:10.37,2013-01-15 11:53:00,
2013-01-15 05:58:00,36.2,33.8,30.10,North,5,3.5,3.5,91,0.00,CLR,,0.00,WeatherDisplay:10.37,2013-01-15 11:58:00,
2013-01-15 06:03:00,36.2,33.8,30.09,North,360,5.8,5.8,91,0.00,CLR,,0.00,WeatherDisplay:10.37,2013-01-15 12:03:00,
2013-01-15 06:08:00,36.2,33.8,30.09,North,360,5.0,5.0,91,0.00,CLR,,0.00,WeatherDisplay:10.37,2013-01-15 12:08:00,
2013-01-15 06:13:00,36.2,33.8,30.10,North,355,5.0,5.0,91,0.00,CLR,,0.00,WeatherDisplay:10.37,2013-01-15 12:13:00,
2013-01-15 06:18:00,36.2,33.8,30.09,North,355,2.0,2.0,91,0.00,CLR,,0.00,WeatherDisplay:10.37,2013-01-15 12:18:00,
2013-01-15 06:23:00,36.2,33.8,30.10,North,355,3.5,3.5,91,0.00,CLR,,0.00,WeatherDisplay:10.37,2013-01-15 12:23:00,
2013-01-15 06:28:00,36.2,33.8,30.09,North,355,4.6,4.6,91,0.00,CLR,,0.00,WeatherDisplay:10.37,2013-01-15 12:28:00,
2013-01-15 06:33:00,36.2,33.8,30.10,North,360,10.4,10.4,91,0.00,CLR,,0.00,WeatherDisplay:10.37,2013-01-15 12:33:00,
2013-01-15 06:38:00,36.1,33.7,30.10,North,360,7.0,7.0,91,0.00,CLR,,0.00,WeatherDisplay:10.37,2013-01-15 12:38:00,
2013-01-15 06:43:00,36.1,33.7,30.10,North,360,5.0,5.0,91,0.00,CLR,,0.00,WeatherDisplay:10.37,2013-01-15 12:43:00,
2013-01-15 06:48:00,36.1,33.7,30.10,North,360,6.9,6.9,91,0.00,CLR,,0.00,WeatherDisplay:10.37,2013-01-15 12:48:00,
2013-01-15 06:53:00,36.1,33.7,30.11,North,360,4.6,0.0,91,0.00,CLR,,0.00,WeatherDisplay:10.37,2013-01-15 12:53:00,
2013-01-15 06:58:00,36.1,33.7,30.10,North,360,8.1,8.1,91,0.00,CLR,,0.00,WeatherDisplay:10.37,2013-01-15 12:58:00,
2013-01-15 07:03:00,36.1,33.7,30.10,North,355,10.4,10.4,91,0.00,CLR,,0.00,WeatherDisplay:10.37,2013-01-15 13:03:00,
2013-01-15 07:08:00,36.1,33.7,30.10,North,355,6.9,6.9,91,0.00,CLR,,0.00,WeatherDisplay:10.37,2013-01-15 13:08:00,
2013-01-15 07:13:00,36.1,33.7,30.10,North,350,10.4,10.4,91,0.00,CLR,,0.00,WeatherDisplay:10.37,2013-01-15 13:13:00,
2013-01-15 07:18:00,36.0,33.6,30.11,North,350,10.4,10.4,91,0.00,CLR,,0.00,WeatherDisplay:10.37,2013-01-15 13:18:00,
2013-01-15 07:23:00,36.0,33.6,30.11,North,355,10.4,10.4,91,0.00,CLR,,0.00,WeatherDisplay:10.37,2013-01-15 13:23:00,
2013-01-15 07:28:00,36.0,33.6,30.11,North,355,5.8,5.8,91,0.00,CLR,,0.00,WeatherDisplay:10.37,2013-01-15 13:28:00,
2013-01-15 07:33:00,36.0,33.6,30.11,North,350,5.8,5.8,91,0.00,CLR,,0.00,WeatherDisplay:10.37,2013-01-15 13:33:00,
2013-01-15 07:38:00,36.1,33.7,30.11,North,355,8.1,8.1,91,0.00,CLR,,0.00,WeatherDisplay:10.37,2013-01-15 13:38:00,
2013-01-15 07:43:00,36.1,33.7,30.11,North,351,9.2,9.2,91,0.00,CLR,,0.00,WeatherDisplay:10.37,2013-01-15 13:43:00,
2013-01-15 07:48:00,36.1,33.7,30.11,North,355,11.5,11.5,91,0.00,CLR,,0.00,WeatherDisplay:10.37,2013-01-15 13:48:00,
2013-01-15 07:53:00,36.2,33.8,30.12,North,360,4.0,4.0,91,0.00,CLR,,0.00,WeatherDisplay:10.37,2013-01-15 13:53:00,
2013-01-15 07:58:00,36.3,33.9,30.12,North,355,4.6,4.6,91,0.00,CLR,,0.00,WeatherDisplay:10.37,2013-01-15 13:58:00,
2013-01-15 08:03:00,36.3,33.9,30.13,North,355,0.0,0.0,91,0.00,CLR,,0.00,WeatherDisplay:10.37,2013-01-15 14:03:00,
2013-01-15 08:08:00,36.3,33.9,30.13,North,355,11.5,11.5,91,0.00,CLR,,0.00,WeatherDisplay:10.37,2013-01-15 14:08:00,
2013-01-15 08:13:00,36.3,33.9,30.13,North,350,9.2,9.2,91,0.00,CLR,,0.00,WeatherDisplay:10.37,2013-01-15 14:13:00,
2013-01-15 08:18:00,36.3,33.6,30.14,North,360,10.4,10.4,90,0.00,CLR,,0.00,WeatherDisplay:10.37,2013-01-15 14:18:00,
2013-01-15 08:23:00,36.3,33.6,30.14,North,355,11.5,11.5,90,0.00,CLR,,0.00,WeatherDisplay:10.37,2013-01-15 14:23:00,
2013-01-15 08:28:00,36.2,33.5,30.14,North,360,12.7,12.7,90,0.00,CLR,,0.00,WeatherDisplay:10.37,2013-01-15 14:28:00,
2013-01-15 08:33:00,36.2,33.5,30.14,North,360,13.8,13.8,90,0.00,CLR,,0.00,WeatherDisplay:10.37,2013-01-15 14:33:00,
2013-01-15 08:38:00,36.2,33.5,30.14,North,360,10.0,10.0,90,0.00,CLR,,0.00,WeatherDisplay:10.37,2013-01-15 14:38:00,
2013-01-15 08:43:00,36.3,33.6,30.13,North,360,10.4,10.4,90,0.00,CLR,,0.00,WeatherDisplay:10.37,2013-01-15 14:43:00,
2013-01-15 08:48:00,36.3,33.6,30.13,North,355,4.6,4.6,90,0.00,CLR,,0.00,WeatherDisplay:10.37,2013-01-15 14:48:00,
2013-01-15 08:53:00,36.3,33.6,30.14,North,355,5.8,5.8,90,0.00,CLR,,0.00,WeatherDisplay:10.37,2013-01-15 14:53:00,
2013-01-15 08:58:00,36.4,33.7,30.13,North,360,6.9,6.9,90,0.00,CLR,,0.00,WeatherDisplay:10.37,2013-01-15 14:58:00,
2013-01-15 09:03:00,36.4,33.7,30.14,North,360,3.5,3.8,90,0.00,CLR,,0.00,WeatherDisplay:10.37,2013-01-15 15:03:00,
2013-01-15 09:08:00,36.5,33.8,30.14,North,5,11.5,11.5,90,0.00,CLR,,0.00,WeatherDisplay:10.37,2013-01-15 15:08:00,
2013-01-15 09:13:00,36.5,33.6,30.13,North,9,11.5,11.5,89,0.00,CLR,,0.00,WeatherDisplay:10.37,2013-01-15 15:13:00,
2013-01-15 09:18:00,36.5,33.8,30.13,North,355,10.4,10.4,90,0.00,CLR,,0.00,WeatherDisplay:10.37,2013-01-15 15:18:00,
2013-01-15 09:23:00,36.5,33.6,30.14,NNW,345,13.8,13.8,89,0.00,CLR,,0.00,WeatherDisplay:10.37,2013-01-15 15:23:00,
2013-01-15 09:28:00,36.5,33.6,30.14,NNW,344,5.8,5.8,89,0.00,CLR,,0.00,WeatherDisplay:10.37,2013-01-15 15:28:00,
2013-01-15 09:33:00,36.6,33.7,30.14,North,360,3.5,3.5,89,0.00,CLR,,0.00,WeatherDisplay:10.37,2013-01-15 15:33:00,
2013-01-15 09:38:00,36.6,33.7,30.14,North,360,6.9,6.9,89,0.00,CLR,,0.00,WeatherDisplay:10.37,2013-01-15 15:38:00,
2013-01-15 09:43:00,36.6,33.7,30.14,North,360,10.4,10.4,89,0.00,CLR,,0.00,WeatherDisplay:10.37,2013-01-15 15:43:00,
2013-01-15 09:48:00,36.6,33.7,30.14,NNE,17,9.2,9.2,89,0.00,CLR,,0.00,WeatherDisplay:10.37,2013-01-15 15:48:00,
2013-01-15 09:53:00,36.4,33.5,30.14,North,5,11.5,11.5,89,0.00,CLR,,0.00,WeatherDisplay:10.37,2013-01-15 15:53:00,
2013-01-15 09:58:00,36.5,33.6,30.14,North,360,5.8,5.8,89,0.00,CLR,,0.00,WeatherDisplay:10.37,2013-01-15 15:58:00,
2013-01-15 10:03:00,36.5,33.3,30.14,North,360,0.0,0.0,88,0.00,CLR,,0.00,WeatherDisplay:10.37,2013-01-15 16:03:00,
2013-01-15 10:08:00,36.5,33.3,30.14,North,5,10.4,10.4,88,0.00,CLR,,0.00,WeatherDisplay:10.37,2013-01-15 16:08:00,
2013-01-15 10:13:00,36.5,33.3,30.14,North,5,6.9,6.9,88,0.00,CLR,,0.00,WeatherDisplay:10.37,2013-01-15 16:13:00,
2013-01-15 10:18:00,36.5,33.0,30.14,North,5,15.0,15.0,87,0.00,CLR,,0.00,WeatherDisplay:10.37,2013-01-15 16:18:00,
2013-01-15 10:23:00,36.5,33.0,30.14,North,355,10.4,10.4,87,0.00,CLR,,0.00,WeatherDisplay:10.37,2013-01-15 16:23:00,
2013-01-15 10:28:00,36.6,33.1,30.14,North,5,10.4,10.4,87,0.00,CLR,,0.00,WeatherDisplay:10.37,2013-01-15 16:28:00,
2013-01-15 10:33:00,36.6,33.1,30.15,North,351,11.5,11.5,87,0.00,CLR,,0.00,WeatherDisplay:10.37,2013-01-15 16:33:00,
2013-01-15 10:38:00,36.6,33.1,30.15,North,360,4.6,4.6,87,0.00,CLR,,0.00,WeatherDisplay:10.37,2013-01-15 16:38:00,
2013-01-15 10:43:00,36.6,33.1,30.14,North,360,0.0,0.6,87,0.00,CLR,,0.00,WeatherDisplay:10.37,2013-01-15 16:43:00,
2013-01-15 10:48:00,36.7,33.2,30.14,North,355,11.5,11.5,87,0.00,CLR,,0.00,WeatherDisplay:10.37,2013-01-15 16:48:00,
2013-01-15 10:53:00,36.7,33.2,30.14,North,355,11.5,11.5,87,0.00,CLR,,0.00,WeatherDisplay:10.37,2013-01-15 16:53:00,
2013-01-15 10:58:00,36.8,33.3,30.14,North,360,6.9,6.9,87,0.00,CLR,,0.00,WeatherDisplay:10.37,2013-01-15 16:58:00,
2013-01-15 11:03:00,36.9,33.4,30.15,North,355,13.8,13.8,87,0.00,CLR,,0.00,WeatherDisplay:10.37,2013-01-15 17:03:00,
2013-01-15 11:08:00,36.9,33.4,30.14,North,350,10.4,10.4,87,0.00,CLR,,0.00,WeatherDisplay:10.37,2013-01-15 17:08:00,
2013-01-15 11:13:00,36.9,33.1,30.13,North,350,11.5,11.5,86,0.00,CLR,,0.00,WeatherDisplay:10.37,2013-01-15 17:13:00,
2013-01-15 11:18:00,37.0,33.2,30.13,North,5,9.2,9.2,86,0.00,CLR,,0.00,WeatherDisplay:10.37,2013-01-15 17:18:00,
2013-01-15 11:23:00,37.0,33.2,30.13,North,350,8.1,8.1,86,0.00,CLR,,0.00,WeatherDisplay:10.37,2013-01-15 17:23:00,
2013-01-15 11:28:00,37.1,33.3,30.12,North,349,12.7,12.7,86,0.00,CLR,,0.00,WeatherDisplay:10.37,2013-01-15 17:28:00,
2013-01-15 11:33:00,37.1,33.3,30.12,NNW,342,6.9,6.9,86,0.00,CLR,,0.00,WeatherDisplay:10.37,2013-01-15 17:33:00,
2013-01-15 11:38:00,37.1,33.3,30.12,North,360,11.5,11.5,86,0.00,CLR,,0.00,WeatherDisplay:10.37,2013-01-15 17:38:00,
2013-01-15 11:43:00,37.0,33.2,30.13,North,5,9.2,9.2,86,0.00,CLR,,0.00,WeatherDisplay:10.37,2013-01-15 17:43:00,
2013-01-15 11:48:00,37.1,33.3,30.12,North,5,11.5,11.5,86,0.00,CLR,,0.00,WeatherDisplay:10.37,2013-01-15 17:48:00,
2013-01-15 11:53:00,37.0,33.2,30.13,North,355,5.8,5.8,86,0.00,CLR,,0.00,WeatherDisplay:10.37,2013-01-15 17:53:00,
2013-01-15 11:58:00,37.0,33.2,30.12,North,360,3.0,4.3,86,0.00,CLR,,0.00,WeatherDisplay:10.37,2013-01-15 17:58:00,
2013-01-15 12:03:00,37.0,32.9,30.12,North,360,11.5,11.5,85,0.00,CLR,,0.00,WeatherDisplay:10.37,2013-01-15 18:03:00,
2013-01-15 12:08:00,36.9,33.1,30.13,North,355,11.5,11.5,86,0.00,CLR,,0.00,WeatherDisplay:10.37,2013-01-15 18:08:00,
2013-01-15 12:13:00,36.8,33.0,30.12,NNW,330,11.5,11.5,86,0.00,CLR,,0.00,WeatherDisplay:10.37,2013-01-15 18:13:00,
2013-01-15 12:18:00,36.7,32.9,30.12,North,355,14.0,14.0,86,0.00,CLR,,0.00,WeatherDisplay:10.37,2013-01-15 18:18:00,
2013-01-15 12:23:00,36.6,32.8,30.12,North,360,6.9,6.9,86,0.00,CLR,,0.00,WeatherDisplay:10.37,2013-01-15 18:23:00,
2013-01-15 12:28:00,36.6,32.8,30.12,NNW,333,12.7,12.7,86,0.00,CLR,,0.00,WeatherDisplay:10.37,2013-01-15 18:28:00,
2013-01-15 12:33:00,36.6,32.8,30.12,North,350,15.0,15.0,86,0.00,CLR,,0.00,WeatherDisplay:10.37,2013-01-15 18:33:00,
2013-01-15 12:38:00,36.5,32.7,30.12,NNW,345,8.1,8.1,86,0.00,CLR,,0.00,WeatherDisplay:10.37,2013-01-15 18:38:00,
2013-01-15 12:43:00,36.5,32.7,30.12,NNW,340,11.5,11.5,86,0.00,CLR,,0.00,WeatherDisplay:10.37,2013-01-15 18:43:00,
2013-01-15 12:48:00,36.5,32.7,30.12,NW,324,12.7,12.7,86,0.00,CLR,,0.00,WeatherDisplay:10.37,2013-01-15 18:48:00,
2013-01-15 12:53:00,36.5,32.4,30.10,NNW,348,16.1,16.1,85,0.00,CLR,,0.00,WeatherDisplay:10.37,2013-01-15 18:53:00,
2013-01-15 12:58:00,36.6,32.5,30.11,North,9,12.0,12.0,85,0.00,CLR,,0.00,WeatherDisplay:10.37,2013-01-15 18:58:00,
2013-01-15 13:03:00,36.6,32.5,30.10,North,360,17.3,17.3,85,0.00,CLR,,0.00,WeatherDisplay:10.37,2013-01-15 19:03:00,
2013-01-15 13:08:00,36.7,32.6,30.10,NNW,341,5.8,5.8,85,0.00,CLR,,0.00,WeatherDisplay:10.37,2013-01-15 19:08:00,
2013-01-15 13:13:00,36.8,32.7,30.09,North,360,11.0,11.0,85,0.00,CLR,,0.00,WeatherDisplay:10.37,2013-01-15 19:13:00,
2013-01-15 13:18:00,36.9,32.8,30.09,North,360,16.1,16.1,85,0.00,CLR,,0.00,WeatherDisplay:10.37,2013-01-15 19:18:00,
2013-01-15 13:23:00,36.9,32.8,30.08,North,5,11.5,11.5,85,0.00,CLR,,0.00,WeatherDisplay:10.37,2013-01-15 19:23:00,
2013-01-15 13:28:00,37.0,32.6,30.09,North,360,5.8,5.8,84,0.00,CLR,,0.00,WeatherDisplay:10.37,2013-01-15 19:28:00,
2013-01-15 13:33:00,37.0,32.9,30.10,North,360,15.0,15.0,85,0.00,CLR,,0.00,WeatherDisplay:10.37,2013-01-15 19:33:00,
2013-01-15 13:38:00,36.9,32.5,30.10,North,5,10.4,10.4,84,0.00,CLR,,0.00,WeatherDisplay:10.37,2013-01-15 19:38:00,
2013-01-15 13:43:00,36.9,32.5,30.09,North,9,13.0,13.0,84,0.00,CLR,,0.00,WeatherDisplay:10.37,2013-01-15 19:43:00,
2013-01-15 13:48:00,37.0,32.6,30.09,North,5,16.1,16.1,84,0.00,CLR,,0.00,WeatherDisplay:10.37,2013-01-15 19:48:00,
2013-01-15 13:53:00,37.1,32.7,30.09,NW,317,11.0,11.0,84,0.00,CLR,,0.00,WeatherDisplay:10.37,2013-01-15 19:53:00,
2013-01-15 13:58:00,37.2,32.8,30.10,NNW,347,11.5,11.5,84,0.00,CLR,,0.00,WeatherDisplay:10.37,2013-01-15 19:58:00,
2013-01-15 14:03:00,37.3,32.9,30.10,NNW,341,16.1,16.1,84,0.00,CLR,,0.00,WeatherDisplay:10.37,2013-01-15 20:03:00,
2013-01-15 14:08:00,37.3,32.6,30.09,North,350,13.8,13.8,83,0.00,CLR,,0.00,WeatherDisplay:10.37,2013-01-15 20:08:00,
2013-01-15 14:13:00,37.4,32.7,30.09,NNW,344,10.4,10.4,83,0.00,CLR,,0.00,WeatherDisplay:10.37,2013-01-15 20:13:00,
2013-01-15 14:18:00,37.5,32.8,30.09,NNW,346,10.4,10.4,83,0.00,CLR,,0.00,WeatherDisplay:10.37,2013-01-15 20:18:00,
2013-01-15 14:23:00,37.6,32.9,30.09,NNW,336,12.7,12.7,83,0.00,CLR,,0.00,WeatherDisplay:10.37,2013-01-15 20:23:00,
2013-01-15 14:28:00,37.7,33.0,30.09,North,360,11.5,11.5,83,0.00,CLR,,0.00,WeatherDisplay:10.37,2013-01-15 20:28:00,
2013-01-15 14:33:00,37.7,33.0,30.10,North,355,9.2,9.2,83,0.00,CLR,,0.00,WeatherDisplay:10.37,2013-01-15 20:33:00,
2013-01-15 14:38:00,37.8,33.1,30.09,North,360,11.5,11.5,83,0.00,CLR,,0.00,WeatherDisplay:10.37,2013-01-15 20:38:00,
2013-01-15 14:43:00,37.8,33.1,30.10,NNW,345,16.1,16.1,83,0.00,CLR,,0.00,WeatherDisplay:10.37,2013-01-15 20:43:00,
2013-01-15 14:48:00,37.8,33.1,30.10,North,355,16.1,16.1,83,0.00,CLR,,0.00,WeatherDisplay:10.37,2013-01-15 20:48:00,
2013-01-15 14:53:00,37.9,33.2,30.10,NNW,346,11.5,11.5,83,0.00,CLR,,0.00,WeatherDisplay:10.37,2013-01-15 20:53:00,
2013-01-15 14:58:00,38.0,33.0,30.10,NNW,344,15.0,15.0,82,0.00,CLR,,0.00,WeatherDisplay:10.37,2013-01-15 20:58:00,
2013-01-15 15:03:00,38.1,33.1,30.10,North,355,12.7,12.7,82,0.00,CLR,,0.00,WeatherDisplay:10.37,2013-01-15 21:03:00,
2013-01-15 15:08:00,38.3,33.3,30.10,North,5,11.5,11.5,82,0.00,CLR,,0.00,WeatherDisplay:10.37,2013-01-15 21:08:00,
2013-01-15 15:13:00,38.4,33.4,30.11,North,360,6.9,6.9,82,0.00,CLR,,0.00,WeatherDisplay:10.37,2013-01-15 21:13:00,
2013-01-15 15:18:00,38.5,33.5,30.11,North,355,11.5,11.5,82,0.00,CLR,,0.00,WeatherDisplay:10.37,2013-01-15 21:18:00,
2013-01-15 15:23:00,38.6,33.3,30.11,NW,321,14.0,14.0,81,0.00,CLR,,0.00,WeatherDisplay:10.37,2013-01-15 21:23:00,
2013-01-15 15:28:00,38.6,33.3,30.10,North,349,10.4,10.4,81,0.00,CLR,,0.00,WeatherDisplay:10.37,2013-01-15 21:28:00,
2013-01-15 15:33:00,38.6,33.3,30.10,NNW,343,9.0,9.0,81,0.00,CLR,,0.00,WeatherDisplay:10.37,2013-01-15 21:33:00,
2013-01-15 15:38:00,38.7,33.4,30.10,NNW,341,11.5,11.5,81,0.00,CLR,,0.00,WeatherDisplay:10.37,2013-01-15 21:38:00,
2013-01-15 15:43:00,38.8,33.5,30.10,North,5,6.9,6.9,81,0.00,CLR,,0.00,WeatherDisplay:10.37,2013-01-15 21:43:00,
2013-01-15 15:48:00,38.9,33.6,30.10,NNW,336,11.5,11.5,81,0.00,CLR,,0.00,WeatherDisplay:10.37,2013-01-15 21:48:00,
2013-01-15 15:53:00,39.0,33.4,30.10,North,350,16.1,16.1,80,0.00,CLR,,0.00,WeatherDisplay:10.37,2013-01-15 21:53:00,
2013-01-15 15:58:00,39.1,33.5,30.11,NNW,344,12.7,12.7,80,0.00,CLR,,0.00,WeatherDisplay:10.37,2013-01-15 21:58:00,
2013-01-15 16:03:00,39.1,33.5,30.11,North,350,5.8,5.8,80,0.00,CLR,,0.00,WeatherDisplay:10.37,2013-01-15 22:03:00,
2013-01-15 16:08:00,39.1,33.5,30.10,North,355,11.5,11.5,80,0.00,CLR,,0.00,WeatherDisplay:10.37,2013-01-15 22:08:00,
2013-01-15 16:13:00,39.0,33.4,30.11,North,355,4.6,4.6,80,0.00,CLR,,0.00,WeatherDisplay:10.37,2013-01-15 22:13:00,
2013-01-15 16:18:00,39.0,33.4,30.11,North,350,5.8,5.8,80,0.00,CLR,,0.00,WeatherDisplay:10.37,2013-01-15 22:18:00,
2013-01-15 16:23:00,38.9,33.3,30.11,North,350,4.6,4.6,80,0.00,CLR,,0.00,WeatherDisplay:10.37,2013-01-15 22:23:00,
2013-01-15 16:28:00,38.8,33.2,30.12,NNW,336,11.5,11.5,80,0.00,CLR,,0.00,WeatherDisplay:10.37,2013-01-15 22:28:00,
2013-01-15 16:33:00,38.8,33.2,30.13,North,355,3.5,3.7,80,0.00,CLR,,0.00,WeatherDisplay:10.37,2013-01-15 22:33:00,
2013-01-15 16:38:00,38.8,33.2,30.13,North,355,12.7,12.7,80,0.00,CLR,,0.00,WeatherDisplay:10.37,2013-01-15 22:38:00,
2013-01-15 16:43:00,38.8,33.2,30.14,North,5,15.0,15.0,80,0.00,CLR,,0.00,WeatherDisplay:10.37,2013-01-15 22:43:00,
2013-01-15 16:48:00,38.8,32.8,30.15,NNW,331,12.7,12.7,79,0.00,CLR,,0.00,WeatherDisplay:10.37,2013-01-15 22:48:00,
2013-01-15 16:53:00,38.8,33.2,30.15,North,5,15.0,15.0,80,0.00,CLR,,0.00,WeatherDisplay:10.37,2013-01-15 22:53:00,
2013-01-15 16:58:00,39.0,33.0,30.15,North,355,9.2,9.2,79,0.00,CLR,,0.00,WeatherDisplay:10.37,2013-01-15 22:58:00,
2013-01-15 17:03:00,39.0,33.0,30.15,NNW,343,10.4,10.4,79,0.00,CLR,,0.00,WeatherDisplay:10.37,2013-01-15 23:03:00,
2013-01-15 17:08:00,39.1,33.1,30.15,North,355,8.1,8.1,79,0.00,CLR,,0.00,WeatherDisplay:10.37,2013-01-15 23:08:00,
2013-01-15 17:13:00,39.1,33.1,30.16,NNW,348,16.1,16.1,79,0.00,CLR,,0.00,WeatherDisplay:10.37,2013-01-15 23:13:00,
2013-01-15 17:18:00,39.2,33.2,30.16,North,360,4.6,4.6,79,0.00,CLR,,0.00,WeatherDisplay:10.37,2013-01-15 23:18:00,
2013-01-15 17:23:00,39.1,33.1,30.16,North,351,11.5,11.5,79,0.00,CLR,,0.00,WeatherDisplay:10.37,2013-01-15 23:23:00,
2013-01-15 17:28:00,39.1,32.8,30.16,NNW,347,16.1,16.1,78,0.00,CLR,,0.00,WeatherDisplay:10.37,2013-01-15 23:28:00,
2013-01-15 17:33:00,39.0,32.7,30.16,NNW,347,11.5,11.5,78,0.00,CLR,,0.00,WeatherDisplay:10.37,2013-01-15 23:33:00,
2013-01-15 17:38:00,38.9,32.6,30.16,NNW,344,19.6,19.6,78,0.00,CLR,,0.00,WeatherDisplay:10.37,2013-01-15 23:38:00,
2013-01-15 17:43:00,38.9,32.6,30.16,NNW,344,3.5,3.5,78,0.00,CLR,,0.00,WeatherDisplay:10.37,2013-01-15 23:43:00,
2013-01-15 17:48:00,38.8,32.5,30.16,NW,316,16.1,16.1,78,0.00,CLR,,0.00,WeatherDisplay:10.37,2013-01-15 23:48:00,
2013-01-15 17:53:00,38.8,32.5,30.17,NW,319,5.8,5.8,78,0.00,CLR,,0.00,WeatherDisplay:10.37,2013-01-15 23:53:00,
2013-01-15 17:58:00,38.7,32.4,30.17,NNW,348,3.5,3.5,78,0.00,CLR,,0.00,WeatherDisplay:10.37,2013-01-15 23:58:00,
2013-01-15 18:03:00,38.7,32.4,30.17,NNW,334,16.1,16.1,78,0.00,CLR,,0.00,WeatherDisplay:10.37,2013-01-16 00:03:00,
2013-01-15 18:08:00,38.6,32.3,30.16,NNW,334,2.3,2.3,78,0.00,CLR,,0.00,WeatherDisplay:10.37,2013-01-16 00:08:00,
2013-01-15 18:13:00,38.5,32.2,30.17,North,350,5.8,5.8,78,0.00,CLR,,0.00,WeatherDisplay:10.37,2013-01-16 00:13:00,
2013-01-15 18:18:00,38.4,31.8,30.17,NNW,346,3.5,3.5,77,0.00,CLR,,0.00,WeatherDisplay:10.37,2013-01-16 00:18:00,
2013-01-15 18:23:00,38.3,31.4,30.17,NNW,344,15.0,15.0,76,0.00,CLR,,0.00,WeatherDisplay:10.37,2013-01-16 00:23:00,
2013-01-15 18:28:00,38.3,31.4,30.17,North,360,11.5,11.5,76,0.00,CLR,,0.00,WeatherDisplay:10.37,2013-01-16 00:28:00,
2013-01-15 18:33:00,38.2,31.3,30.17,North,355,5.8,5.8,76,0.00,CLR,,0.00,WeatherDisplay:10.37,2013-01-16 00:33:00,
2013-01-15 18:38:00,38.2,31.0,30.17,NNW,348,3.5,3.5,75,0.00,CLR,,0.00,WeatherDisplay:10.37,2013-01-16 00:38:00,
2013-01-15 18:43:00,38.2,31.3,30.17,North,360,7.0,7.0,76,0.00,CLR,,0.00,WeatherDisplay:10.37,2013-01-16 00:43:00,
2013-01-15 18:48:00,38.1,31.2,30.17,North,355,4.6,4.6,76,0.00,CLR,,0.00,WeatherDisplay:10.37,2013-01-16 00:48:00,
2013-01-15 18:53:00,38.1,31.2,30.17,North,355,3.5,3.5,76,0.00,CLR,,0.00,WeatherDisplay:10.37,2013-01-16 00:53:00,
2013-01-15 18:58:00,38.0,31.1,30.17,North,360,2.3,2.3,76,0.00,CLR,,0.00,WeatherDisplay:10.37,2013-01-16 00:58:00,
2013-01-15 19:03:00,37.9,31.0,30.17,NNW,348,9.2,9.2,76,0.00,CLR,,0.00,WeatherDisplay:10.37,2013-01-16 01:03:00,
2013-01-15 19:08:00,37.9,31.3,30.17,NNW,345,4.0,4.0,77,0.00,CLR,,0.00,WeatherDisplay:10.37,2013-01-16 01:08:00,
2013-01-15 19:13:00,37.8,31.2,30.17,North,355,3.5,3.5,77,0.00,CLR,,0.00,WeatherDisplay:10.37,2013-01-16 01:13:00,
2013-01-15 19:18:00,37.8,31.2,30.17,North,351,4.6,4.6,77,0.00,CLR,,0.00,WeatherDisplay:10.37,2013-01-16 01:18:00,
2013-01-15 19:23:00,37.7,30.8,30.17,North,355,4.6,4.6,76,0.00,CLR,,0.00,WeatherDisplay:10.37,2013-01-16 01:23:00,
2013-01-15 19:28:00,37.7,30.8,30.16,North,355,5.8,5.8,76,0.00,CLR,,0.00,WeatherDisplay:10.37,2013-01-16 01:28:00,
2013-01-15 19:33:00,37.6,30.7,30.17,NNW,346,4.0,4.0,76,0.00,CLR,,0.00,WeatherDisplay:10.37,2013-01-16 01:33:00,
2013-01-15 19:38:00,37.5,30.6,30.17,North,360,8.1,8.1,76,0.00,CLR,,0.00,WeatherDisplay:10.37,2013-01-16 01:38:00,
2013-01-15 19:43:00,37.4,30.5,30.17,NNW,342,6.9,6.9,76,0.00,CLR,,0.00,WeatherDisplay:10.37,2013-01-16 01:43:00,
2013-01-15 19:48:00,37.4,30.5,30.18,NNW,334,4.6,4.6,76,0.00,CLR,,0.00,WeatherDisplay:10.37,2013-01-16 01:48:00,
2013-01-15 19:53:00,37.3,30.4,30.18,North,355,3.5,3.5,76,0.00,CLR,,0.00,WeatherDisplay:10.37,2013-01-16 01:53:00,
2013-01-15 19:58:00,37.3,30.1,30.19,NNW,348,6.9,6.9,75,0.00,CLR,,0.00,WeatherDisplay:10.37,2013-01-16 01:58:00,
2013-01-15 20:03:00,37.3,29.8,30.20,North,351,10.4,10.4,74,0.00,CLR,,0.00,WeatherDisplay:10.37,2013-01-16 02:03:00,
2013-01-15 20:08:00,37.2,29.7,30.20,NNW,348,4.6,4.6,74,0.00,CLR,,0.00,WeatherDisplay:10.37,2013-01-16 02:08:00,
2013-01-15 20:13:00,37.2,29.3,30.20,NNW,337,3.5,3.5,73,0.00,CLR,,0.00,WeatherDisplay:10.37,2013-01-16 02:13:00,
2013-01-15 20:18:00,37.2,29.3,30.20,NNW,342,6.9,6.9,73,0.00,CLR,,0.00,WeatherDisplay:10.37,2013-01-16 02:18:00,
2013-01-15 20:23:00,37.1,28.9,30.20,NNW,346,2.3,2.3,72,0.00,CLR,,0.00,WeatherDisplay:10.37,2013-01-16 02:23:00,
2013-01-15 20:28:00,37.1,28.9,30.21,NNW,341,3.5,3.5,72,0.00,CLR,,0.00,WeatherDisplay:10.37,2013-01-16 02:28:00,
2013-01-15 20:33:00,37.1,28.6,30.20,North,355,11.5,11.5,71,0.00,CLR,,0.00,WeatherDisplay:10.37,2013-01-16 02:33:00,
2013-01-15 20:38:00,37.0,28.5,30.20,North,355,11.5,11.5,71,0.00,CLR,,0.00,WeatherDisplay:10.37,2013-01-16 02:38:00,
2013-01-15 20:43:00,37.1,28.2,30.20,NNW,346,4.6,4.6,70,0.00,CLR,,0.00,WeatherDisplay:10.37,2013-01-16 02:43:00,
2013-01-15 20:48:00,37.1,28.2,30.21,NNW,346,3.5,3.5,70,0.00,CLR,,0.00,WeatherDisplay:10.37,2013-01-16 02:48:00,
2013-01-15 20:53:00,37.1,28.2,30.21,NNW,346,6.9,6.9,70,0.00,CLR,,0.00,WeatherDisplay:10.37,2013-01-16 02:53:00,
2013-01-15 20:58:00,37.0,28.1,30.20,NNW,345,4.6,4.6,70,0.00,CLR,,0.00,WeatherDisplay:10.37,2013-01-16 02:58:00,
2013-01-15 21:03:00,37.0,28.1,30.20,NNW,344,4.6,4.6,70,0.00,CLR,,0.00,WeatherDisplay:10.37,2013-01-16 03:03:00,
2013-01-15 21:08:00,36.9,28.0,30.20,NNW,344,1.2,1.2,70,0.00,CLR,,0.00,WeatherDisplay:10.37,2013-01-16 03:08:00,
2013-01-15 21:13:00,36.8,27.9,30.20,NNW,344,3.5,3.5,70,0.00,CLR,,0.00,WeatherDisplay:10.37,2013-01-16 03:13:00,
2013-01-15 21:18:00,36.7,27.8,30.20,NNW,342,2.3,2.3,70,0.00,CLR,,0.00,WeatherDisplay:10.37,2013-01-16 03:18:00,
2013-01-15 21:23:00,36.7,27.8,30.20,NNW,343,3.5,3.5,70,0.00,CLR,,0.00,WeatherDisplay:10.37,2013-01-16 03:23:00,
2013-01-15 21:28:00,36.6,27.7,30.21,NNW,342,0.0,0.0,70,0.00,CLR,,0.00,WeatherDisplay:10.37,2013-01-16 03:28:00,
2013-01-15 21:33:00,36.6,27.7,30.21,NNW,342,3.5,3.5,70,0.00,CLR,,0.00,WeatherDisplay:10.37,2013-01-16 03:33:00,
2013-01-15 21:38:00,36.5,27.6,30.22,NNW,342,2.3,0.0,70,0.00,CLR,,0.00,WeatherDisplay:10.37,2013-01-16 03:38:00,
2013-01-15 21:43:00,36.4,27.5,30.22,NNW,342,4.6,4.6,70,0.00,CLR,,0.00,WeatherDisplay:10.37,2013-01-16 03:43:00,
2013-01-15 21:48:00,36.3,27.4,30.22,NNW,342,0.0,0.0,70,0.00,CLR,,0.00,WeatherDisplay:10.37,2013-01-16 03:48:00,
2013-01-15 21:53:00,36.2,27.7,30.22,NNW,342,2.3,2.3,71,0.00,CLR,,0.00,WeatherDisplay:10.37,2013-01-16 03:53:00,
2013-01-15 21:58:00,36.1,27.6,30.23,NNW,342,3.5,3.5,71,0.00,CLR,,0.00,WeatherDisplay:10.37,2013-01-16 03:58:00,
2013-01-15 22:03:00,35.9,27.4,30.23,NNW,342,2.3,2.3,71,0.00,CLR,,0.00,WeatherDisplay:10.37,2013-01-16 04:03:00,
2013-01-15 22:08:00,35.8,27.7,30.23,NNW,342,2.3,2.3,72,0.00,CLR,,0.00,WeatherDisplay:10.37,2013-01-16 04:08:00,
2013-01-15 22:13:00,35.7,27.6,30.24,NNW,342,3.5,3.5,72,0.00,CLR,,0.00,WeatherDisplay:10.37,2013-01-16 04:13:00,
2013-01-15 22:18:00,35.5,27.4,30.23,NNW,342,3.5,3.5,72,0.00,CLR,,0.00,WeatherDisplay:10.37,2013-01-16 04:18:00,
2013-01-15 22:23:00,35.4,27.3,30.23,NNW,342,2.3,2.3,72,0.00,CLR,,0.00,WeatherDisplay:10.37,2013-01-16 04:23:00,
2013-01-15 22:28:00,35.4,27.3,30.24,NNW,342,3.5,3.5,72,0.00,CLR,,0.00,WeatherDisplay:10.37,2013-01-16 04:28:00,
2013-01-15 22:33:00,35.3,27.2,30.24,NNW,342,6.9,6.9,72,0.00,CLR,,0.00,WeatherDisplay:10.37,2013-01-16 04:33:00,
2013-01-15 22:38:00,35.3,27.2,30.24,NNW,341,9.2,9.2,72,0.00,CLR,,0.00,WeatherDisplay:10.37,2013-01-16 04:38:00,
2013-01-15 22:43:00,35.4,26.9,30.24,NNW,341,5.8,5.8,71,0.00,CLR,,0.00,WeatherDisplay:10.37,2013-01-16 04:43:00,
2013-01-15 22:48:00,35.4,26.6,30.24,NNW,342,5.8,5.8,70,0.00,CLR,,0.00,WeatherDisplay:10.37,2013-01-16 04:48:00,
2013-01-15 22:53:00,35.4,26.6,30.24,NNW,342,5.8,5.8,70,0.00,CLR,,0.00,WeatherDisplay:10.37,2013-01-16 04:53:00,
2013-01-15 22:58:00,35.4,26.6,30.24,NNW,344,6.9,6.9,70,0.00,CLR,,0.00,WeatherDisplay:10.37,2013-01-16 04:58:00,